IW2GOB-3 Weather Reports


time (UTC)temp
F
wind
direction
speed
knots
gust
knots
rain 1hr
in
rain 24hr
in
rain mn
in
humidity
%
barometer
mb
20260507204527 64 209 0.0 0.9 0.00 0.00 0.00 69 1012.8
20260507203527 65 209 0.0 0.0 0.00 0.00 0.00 67 1012.5
20260507202527 65 209 0.0 0.0 0.00 0.00 0.00 66 1012.6
20260507201527 66 209 0.0 0.0 0.00 0.00 0.00 64 1012.5
20260507200527 66 209 0.0 0.0 0.00 0.00 0.00 64 1012.4
20260507195527 66 209 0.0 0.0 0.00 0.00 0.00 64 1012.3
20260507194527 67 209 0.0 0.0 0.00 0.00 0.00 62 1012.1
20260507193527 67 209 0.0 0.0 0.00 0.00 0.00 61 1011.9
20260507192527 68 209 0.0 0.0 0.00 0.00 0.00 60 1011.9
20260507191527 68 209 0.0 0.9 0.00 0.00 0.00 59 1011.8
20260507190527 69 209 0.0 0.0 0.00 0.00 0.00 58 1011.7
20260507185527 69 209 0.0 0.0 0.00 0.00 0.00 56 1011.7
20260507184527 70 209 0.0 0.9 0.00 0.00 0.00 56 1011.5
20260507183527 70 209 0.0 0.9 0.00 0.00 0.00 54 1011.4
20260507182527 71 210 0.9 2.6 0.00 0.00 0.00 53 1011.4
20260507181527 72 188 1.7 2.6 0.00 0.00 0.00 51 1011.3
20260507180527 72 183 0.9 2.6 0.00 0.00 0.00 50 1011.2
20260507175527 72 193 1.7 2.6 0.00 0.00 0.00 49 1010.8
20260507174527 73 205 0.9 1.7 0.00 0.00 0.00 48 1010.7
20260507173527 73 181 0.9 1.7 0.00 0.00 0.00 47 1010.8
20260507172527 73 204 1.7 2.6 0.00 0.00 0.00 47 1010.8
20260507171527 73 118 0.0 0.9 0.00 0.00 0.00 47 1010.8
20260507170527 73 176 1.7 2.6 0.00 0.00 0.00 47 1010.7
20260507165527 74 195 2.6 7.0 0.00 0.00 0.00 47 1010.7
20260507164527 73 207 1.7 2.6 0.00 0.00 0.00 47 1010.8
20260507163527 73 182 0.9 2.6 0.00 0.00 0.00 49 1010.7
20260507162527 73 174 0.9 2.6 0.00 0.00 0.00 49 1010.7
20260507161527 73 149 0.9 2.6 0.00 0.00 0.00 48 1010.6
20260507160526 73 276 1.7 2.6 0.00 0.00 0.00 47 1010.6
20260507155526 73 237 2.6 2.6 0.00 0.00 0.00 45 1010.7
20260507154527 73 241 2.6 5.2 0.00 0.00 0.00 46 1010.7
20260507153526 73 190 1.7 2.6 0.00 0.00 0.00 50 1010.8
20260507152526 72 281 2.6 5.2 0.00 0.00 0.00 49 1010.8
20260507151526 72 153 1.7 4.3 0.00 0.00 0.00 52 1010.7
20260507150526 72 213 4.3 5.2 0.00 0.00 0.00 52 1010.7
20260507145526 72 202 5.2 6.1 0.00 0.00 0.00 50 1010.8
20260507144526 73 264 4.3 6.1 0.00 0.00 0.00 51 1010.7
20260507143526 72 213 2.6 6.1 0.00 0.00 0.00 51 1010.8
20260507142526 72 275 5.2 6.1 0.00 0.00 0.00 51 1010.9
20260507141526 71 292 4.3 4.3 0.00 0.00 0.00 51 1011.1
20260507140526 71 260 7.0 8.7 0.00 0.00 0.00 50 1011.1
20260507135526 71 277 4.3 8.7 0.00 0.00 0.00 52 1011.2
20260507134526 71 257 0.9 4.3 0.00 0.00 0.00 51 1011.3
20260507133526 71 245 4.3 6.1 0.00 0.00 0.00 51 1011.5
20260507132526 71 279 4.3 6.1 0.00 0.00 0.00 50 1011.5
20260507131526 71 285 4.3 6.1 0.00 0.00 0.00 52 1011.6
20260507130526 71 291 2.6 5.2 0.00 0.00 0.00 52 1011.7
20260507125526 71 249 2.6 7.0 0.00 0.00 0.00 51 1011.7
20260507124526 71 255 4.3 5.2 0.00 0.00 0.00 51 1011.7
20260507123526 70 301 2.6 7.0 0.00 0.00 0.00 53 1011.8
20260507122526 69 0 0.0 2.6 0.00 0.00 0.00 52 1011.8
20260507121526 70 265 1.7 2.6 0.00 0.00 0.00 52 1011.9
20260507120526 70 199 2.6 5.2 0.00 0.00 0.00 52 1012.1
20260507115526 70 252 1.7 2.6 0.00 0.00 0.00 51 1012.1
20260507114526 71 273 5.2 8.7 0.00 0.00 0.00 52 1012.1
20260507113526 69 218 1.7 4.3 0.00 0.00 0.00 55 1012.1
20260507112526 68 347 1.7 2.6 0.00 0.00 0.00 57 1012.3
20260507111526 68 52 2.6 4.3 0.00 0.00 0.00 56 1012.3
20260507110526 69 315 2.6 6.1 0.00 0.00 0.00 55 1012.5
20260507105526 68 340 2.6 4.3 0.00 0.00 0.00 56 1012.5
20260507104526 68 306 1.7 2.6 0.00 0.00 0.00 53 1012.6
20260507103526 68 312 6.1 7.8 0.00 0.00 0.00 56 1012.7
20260507102526 67 299 4.3 7.0 0.00 0.00 0.00 55 1012.7
20260507101526 67 8 0.9 4.3 0.00 0.00 0.00 59 1012.8
20260507100526 66 324 4.3 6.1 0.00 0.00 0.00 60 1012.8
20260507095526 66 31 4.3 6.1 0.00 0.00 0.00 65 1012.8
20260507094526 65 337 1.7 2.6 0.00 0.00 0.00 65 1012.9
20260507093526 64 310 1.7 1.7 0.00 0.00 0.00 69 1012.9
20260507092526 64 6 4.3 5.2 0.00 0.00 0.00 72 1012.8
20260507091526 63 321 5.2 7.0 0.00 0.00 0.00 75 1012.8
20260507090526 62 328 4.3 5.2 0.00 0.00 0.00 76 1012.8
20260507085526 63 328 2.6 7.0 0.00 0.00 0.00 71 1012.8
20260507084526 64 319 1.7 2.6 0.00 0.00 0.00 68 1012.7
20260507083526 65 313 1.7 4.3 0.00 0.04 0.00 66 1012.7
20260507082526 66 351 1.7 2.6 0.00 0.12 0.00 63 1012.8
20260507081526 65 17 0.9 1.7 0.00 0.14 0.00 65 1012.8
20260507080526 64 343 1.7 2.6 0.00 0.16 0.00 66 1012.8
20260507075526 63 165 0.9 2.6 0.00 0.19 0.00 67 1012.7
20260507074526 63 57 0.9 0.9 0.00 0.20 0.00 68 1012.6
20260507073526 62 67 2.6 2.6 0.00 0.20 0.00 68 1012.5
20260507072526 62 11 1.7 2.6 0.00 0.20 0.00 70 1012.4
20260507071526 62 49 0.9 2.6 0.00 0.20 0.00 70 1012.5
20260507070526 61 35 2.6 2.6 0.00 0.20 0.00 72 1012.5
20260507065526 61 350 0.9 0.9 0.00 0.20 0.00 74 1012.3
20260507064526 60 36 2.6 2.6 0.00 0.20 0.00 74 1012.2
20260507063526 59 352 0.9 2.6 0.00 0.20 0.00 77 1012.1
20260507062526 58 232 0.0 0.9 0.00 0.21 0.00 79 1012.2
20260507061526 57 240 0.9 2.6 0.00 0.21 0.00 80 1012.1
20260507060526 57 332 0.0 1.7 0.00 0.21 0.00 82 1012.0
20260507055526 57 327 0.9 2.6 0.00 0.21 0.00 82 1011.9
20260507054526 56 300 0.0 0.9 0.00 0.21 0.00 83 1011.9
20260507053526 56 300 0.0 0.9 0.00 0.21 0.00 83 1011.9
20260507052526 56 300 0.0 0.0 0.00 0.21 0.00 83 1011.8
20260507051526 55 295 0.9 1.7 0.00 0.21 0.00 83 1011.6
20260507050526 55 319 0.0 0.9 0.00 0.21 0.00 84 1011.4
20260507045526 55 319 0.0 1.7 0.00 0.21 0.00 84 1011.3
20260507044526 55 319 0.0 0.0 0.00 0.21 0.00 84 1011.1
20260507043526 55 329 0.9 1.7 0.00 0.21 0.00 84 1011.0
20260507042526 55 329 0.0 0.9 0.00 0.22 0.00 84 1011.0
20260507041526 55 13 0.9 1.7 0.00 0.23 0.00 84 1010.8
20260507040526 55 355 0.9 1.7 0.00 0.28 0.00 84 1010.7
20260507035526 55 333 0.9 2.6 0.00 0.33 0.00 84 1010.6
20260507034526 55 329 0.9 1.7 0.00 0.36 0.00 84 1010.6
20260507033526 55 330 0.9 2.6 0.00 0.38 0.00 84 1010.6
20260507032526 55 5 0.9 1.7 0.00 0.40 0.00 84 1010.5
20260507031526 55 350 0.9 2.6 0.00 0.41 0.00 83 1010.6
20260507030526 55 14 0.9 2.6 0.00 0.42 0.00 84 1010.5
20260507025526 55 319 2.6 4.3 0.00 0.43 0.00 83 1010.6
20260507024526 55 324 1.7 2.6 0.00 0.43 0.00 83 1010.5
20260507023526 55 336 0.9 1.7 0.00 0.44 0.00 83 1010.4
20260507022526 55 323 0.9 1.7 0.00 0.45 0.00 83 1010.5
20260507021526 56 346 0.9 1.7 0.00 0.46 0.00 83 1010.4
20260507020526 56 337 1.7 1.7 0.00 0.47 0.00 82 1010.4
20260507015526 56 351 0.9 2.6 0.00 0.48 0.00 82 1010.3
20260507014526 56 307 1.7 1.7 0.00 0.48 0.00 82 1010.3
20260507013525 56 304 1.7 2.6 0.00 0.48 0.00 81 1010.2
20260507012525 56 317 1.7 2.6 0.00 0.48 0.00 81 1010.3
20260507011525 57 320 2.6 2.6 0.00 0.48 0.00 80 1010.1
20260507010525 57 331 4.3 6.1 0.00 0.48 0.00 80 1010.2
20260507005525 57 319 6.1 8.7 0.00 0.48 0.00 79 1010.2
20260507004525 57 330 2.6 4.3 0.00 0.48 0.00 78 1010.1
20260507003525 57 327 2.6 4.3 0.00 0.48 0.00 78 1010.1
20260507002525 57 338 2.6 4.3 0.00 0.48 0.00 79 1010.2
20260507001525 57 326 1.7 4.3 0.00 0.48 0.00 79 1010.2
20260507000525 57 331 1.7 2.6 0.00 0.48 0.00 80 1010.3
20260506235525 56 335 2.6 2.6 0.00 0.48 0.00 80 1010.3
20260506234525 56 324 0.9 2.6 0.00 0.48 0.00 80 1010.2
20260506233525 56 326 2.6 2.6 0.00 0.48 0.00 81 1010.1
20260506232525 56 324 0.9 2.6 0.00 0.48 0.00 81 1010.0
20260506231525 56 338 0.9 2.6 0.00 0.48 0.00 82 1010.0
20260506230525 56 328 0.9 2.6 0.00 0.48 0.00 82 1009.8
20260506225525 56 304 0.9 0.9 0.00 0.48 0.00 82 1009.7
20260506224525 56 265 0.0 0.9 0.00 0.48 0.00 82 1009.7
20260506223525 56 265 0.9 0.9 0.00 0.48 0.00 81 1009.7
20260506222525 56 265 0.0 0.0 0.00 0.48 0.00 81 1009.8
20260506221525 56 265 0.9 0.9 0.00 0.48 0.00 80 1009.9
20260506220525 56 321 0.0 0.9 0.00 0.48 0.00 80 1009.9
20260506215525 57 323 0.9 1.7 0.00 0.48 0.48 80 1009.8
20260506214525 57 321 0.0 0.9 0.00 0.48 0.48 80 1009.8
20260506213525 57 327 0.9 0.9 0.00 0.48 0.48 80 1009.5
20260506212525 57 16 0.9 0.9 0.00 0.48 0.48 79 1009.7
20260506211525 57 351 0.9 1.7 0.00 0.48 0.48 79 1009.5
20260506210525 57 12 0.9 1.7 0.00 0.48 0.48 79 1009.5
20260506205525 57 0 0.0 2.6 0.00 0.48 0.48 79 1009.5